TimeCDT,TemperatureF,Dew PointF,Humidity,Sea Level PressureIn,VisibilityMPH,Wind Direction,Wind SpeedMPH,Gust SpeedMPH,PrecipitationIn,Events,Conditions,WindDirDegrees,DateUTC
12:54 AM,41.0,30.9,67,30.23,10.0,WNW,4.6,-,N/A,,Overcast,290,2012-10-07 05:54:00
1:54 AM,41.0,30.2,65,30.22,10.0,WNW,4.6,-,N/A,,Overcast,300,2012-10-07 06:54:00
2:54 AM,39.9,32.0,73,30.23,10.0,NW,3.5,-,N/A,,Overcast,310,2012-10-07 07:54:00
3:54 AM,39.9,30.9,70,30.22,10.0,Calm,Calm,-,N/A,,Overcast,0,2012-10-07 08:54:00
4:54 AM,39.9,30.9,70,30.22,10.0,WNW,4.6,-,N/A,,Overcast,290,2012-10-07 09:54:00
5:54 AM,39.0,30.9,73,30.22,10.0,West,3.5,-,N/A,,Overcast,280,2012-10-07 10:54:00
6:54 AM,39.0,30.0,70,30.22,10.0,West,4.6,-,N/A,,Overcast,280,2012-10-07 11:54:00
7:54 AM,39.0,30.0,70,30.23,10.0,WNW,5.8,-,N/A,,Overcast,290,2012-10-07 12:54:00
8:54 AM,41.0,28.9,62,30.24,10.0,Variable,5.8,-,N/A,,Mostly Cloudy,0,2012-10-07 13:54:00
9:54 AM,44.1,28.9,55,30.25,10.0,WNW,9.2,16.1,N/A,,Clear,290,2012-10-07 14:54:00
10:54 AM,45.0,27.0,49,30.26,10.0,Calm,Calm,-,N/A,,Scattered Clouds,0,2012-10-07 15:54:00
11:54 AM,45.0,24.1,44,30.25,10.0,WNW,6.9,-,N/A,,Overcast,300,2012-10-07 16:54:00
12:54 PM,48.9,25.0,39,30.24,10.0,West,8.1,-,N/A,,Mostly Cloudy,270,2012-10-07 17:54:00
1:54 PM,48.0,23.0,37,30.22,10.0,NW,5.8,-,N/A,,Partly Cloudy,310,2012-10-07 18:54:00
2:54 PM,50.0,23.0,35,30.19,10.0,West,8.1,-,N/A,,Clear,280,2012-10-07 19:54:00
3:54 PM,50.0,21.9,33,30.17,10.0,Variable,4.6,16.1,N/A,,Clear,0,2012-10-07 20:54:00
4:54 PM,50.0,21.9,33,30.17,10.0,WNW,5.8,-,N/A,,Clear,300,2012-10-07 21:54:00
5:54 PM,48.9,21.0,33,30.17,10.0,WNW,3.5,-,N/A,,Clear,290,2012-10-07 22:54:00
6:54 PM,43.0,25.0,49,30.18,10.0,Calm,Calm,-,N/A,,Clear,0,2012-10-07 23:54:00
7:54 PM,39.0,28.0,65,30.19,10.0,Calm,Calm,-,N/A,,Clear,0,2012-10-08 00:54:00
8:54 PM,37.0,28.9,73,30.19,10.0,Calm,Calm,-,N/A,,Clear,0,2012-10-08 01:54:00
9:54 PM,36.0,30.0,79,30.19,10.0,Calm,Calm,-,N/A,,Clear,0,2012-10-08 02:54:00
10:54 PM,35.1,30.0,82,30.19,10.0,Calm,Calm,-,N/A,,Clear,0,2012-10-08 03:54:00
11:54 PM,35.1,28.9,78,30.19,10.0,Calm,Calm,-,N/A,,Clear,0,2012-10-08 04:54:00